Regional Weather Roundup
Issued by NWS Cleveland, OH

Home | Current Version | Previous Version | Text Only | Print | Product List | Glossary Off
Versions: 1 2 3 4 5 6 7 8 9 10 11 12 13 14 15 16 17 18 19 20 21 22 23 24 25 26 27 28 29 30 31 32 33 34 35 36 37 38 39 40 41 42 43 44 45 46 47 48 49 50

000
ASUS41 KCLE 251802
RWRCLE
OHIO REGIONAL WEATHER ROUNDUP
NATIONAL WEATHER SERVICE CLEVELAND, OH
200 PM EDT FRI JUL 25 2014

NOTE: "FAIR" INDICATES FEW OR NO CLOUDS BELOW 12,000 FEET WITH NO
SIGNIFICANT WEATHER AND/OR OBSTRUCTIONS TO VISIBILITY.

OHZ001>008-015>018-024>027-034-035-043-044-251900-
   NORTHWEST OHIO

CITY           SKY/WX    TMP DP  RH WIND       PRES   REMARKS
DEFIANCE       MOSUNNY   76  54  46 S13       30.04F
FINDLAY        MOSUNNY   76  53  44 S8        30.06F
TOLEDO EXPRESS PTSUNNY   75  53  46 SW9       30.04F
TOLEDO EXEC    PTSUNNY   76  51  41 SW13      30.05F
LIMA           PTSUNNY   73  53  49 VRB3      30.06F
$$

OHZ009>014-019>023-028>033-038-089-251900-
   NORTHEAST OHIO

CITY           SKY/WX    TMP DP  RH WIND       PRES   REMARKS
CLE-HOPKINS    MOSUNNY   76  52  43 VRB6      30.09S
CLE-LAKEFRONT  SUNNY     73  53  49 NW8       30.06S
CUY CO. ARPT   PTSUNNY   73  59  60 NW9       30.08S
LORAIN-ELYRIA  MOSUNNY   77  51  40 VRB6      30.07F
ASHTABULA      MOSUNNY   72  51  47 NW9       30.07F
AKRON-CANTON   MOSUNNY   75  47  36 SW8       30.08S
WOOSTER        SUNNY     75  51  43 W7        30.08F
MANSFIELD      MOSUNNY   74  51  44 SW8       30.09S
YOUNGSTOWN     MOSUNNY   75  51  43 VRB5      30.07S
$$

OHZ042-051>053-060>062-070>072-077>081-251900-
  SOUTHWEST OHIO

CITY           SKY/WX    TMP DP  RH WIND       PRES   REMARKS
CINC-COVINGTON MOSUNNY   77  53  43 N3        30.07F
CINC-LUNKEN    MOSUNNY   77  57  50 SE5       30.06F
HAMILTON       SUNNY     77  56  48 VRB3      30.07F
DAYTON         CLOUDY    73  52  47 CALM      30.08F
WRIGHT-PAT AFB CLOUDY    72  52  49 VRB2      30.08F
DAYTON GENERAL MOSUNNY   75  55  49 VRB5      30.07F
WILMINGTON     PTSUNNY   74  54  49 W7        30.08F
$$

OHZ036-037-039>041-045>050-054>059-063>069-073>076-082>088-251900-
  CENTRAL AND SOUTHEAST OHIO

CITY           SKY/WX    TMP DP  RH WIND       PRES   REMARKS
COLUMBUS       PTSUNNY   79  53  40 VRB7      30.07F
OSU AIRPORT    PTSUNNY   73  54  51 W8        30.08F
BOLTON FIELD   PTSUNNY   73  57  56 SW7       30.08F
RICKENBACK AFB PTSUNNY   77  49  37 SW7       30.07F
NEWARK         PTSUNNY   74  55  51 VRB3      30.07F
MARION         MOSUNNY   73  49  42 W9        30.08F
LANCASTER      PTSUNNY   76  56  49 S7        30.08F
ZANESVILLE     PTSUNNY   75  55  49 W6        30.07F
NEW PHILLY     SUNNY     74  55  51 W6        30.07F
$$



USA.gov is the U.S. government's official web portal to all federal, state and local government web resources and services.